SCP
-0 -0 -0 -0 -0 -0 -0 -0 -0 -0 -0 0 0 -0 0 -0 0 0 0 0 0 0 0 0 0 0 0 0 0 0 0 0 0 0 0 0 0 0 0 0 0 0 0 0 0
0 0 -0 -0 -0 -0 -0 -0 -0 -0 -0 -0 0 0 0 0 0 0 0 0 0 0 0 0 0 0 0 0 0 0 0 0 0 0 0 0 0 0 0 0 0 0 0 0 0
0 0 0 0 0 0 0 0 0 0 -0 -0 0 -0 -0 -0 0 0 0 0 0 0 0 0 0 0 0 0 0 0 0 0 0 0 0 0 0 0 0 0 0 0 0 0 0
0 0 0 0 0 0 0 0 0 0 0 0 -0 -0 0 0 0 0 0 0 0 0 0 0 0 0 0 0 0 0 0 0 0 0 0 0 0 0 0 0 0 0 0 0 0
0 0 0 0 0 0 0 0 0 0 0 0 0 0 0 0 0 0 0 0 0 0 0 0 0 0 0 0 0 0 0 0 0 0 0 0 0 0 0 0 0 0 0 0 0
0 0 0 0 0 0 0 0 0 0 0 0 0 0 0 0 0 0 0 0 0 0 0 0 0 0 0 0 0 0 0 0 0 0 0 0 0 0 0 0 0 0 0 0 0
0 0 0 0 0 0 0 0 0 0 0 0 0 0 0 0 0 0 0 0 0 0 0 0 0 0 0 0 0 0 0 0 0 0 0 0 0 0 0 0 0 0 0 0 0
0 0 0 0 0 0 0 0 0 0 0 0 0 0 0 0 0 0 0 0 0 0 0 0 0 0 0 0 0 0 0 0 0 0 0 0 0 0 0 0 0 0 0 0 0
0 0 0 0 0 0 0 0 0 0 0 0 0 0 0 0 0 0 0 0 0 0 0 0 0 0 0 0 0 0 0 0 0 0 0 0 0 0 0 0 0 0 0 0 0
0 0 0 0 0 0 0 0 0 0 0 0 0 0 0 0 0 0 0 0 0 0 0 0 0 0 0 0 0 0 0 0 0 0 0 0 0 0 0 0 0 0 0 0 0
0 0 0 0 0 0 0 0 0 0 0 0 0 0 0 0 0 0 0 0 0 0 0 0 0 0 0 0 0 0 0 0 0 0 0 0 0 0 0 0 0 0 0 0 0
0 0 0 0 0 0 0 0 0 0 0 0 0 0 0 0 0 0 0 0 0 0 0 0 0 0 0 0 0 0 0 0 0 0 0 0 0 0 0 0 0 0 0 0 0
0 0 0 0 0 0 0 0 0 0 0 0 0 0 0 0 0 0 0 0 0 0 0 0 0 0 0 0 0 0 0 0 0 0 0 0 0 0 0 0 0 0 0 0 0
0 0 0 0 0 0 0 0 0 0 0 0 0 0 0 0 0 0 0 0 0 0 0 0 0 0 0 0 0 0 0 0 0 0 0 0 0 0 0 0 0 0 0 0 0
0 0 0 0 0 0 0 0 0 0 0 0 0 0 0 0 0 0 0 0 0 0 0 0 0 0 0 0 0 0 0 0 0 0 0 0 0 0 0 0 -0 0 0 0 0
0 0 0 0 0 0 0 0 0 0 0 0 0 0 0 0 0 0 0 0 0 0 0 0 0 0 0 0 0 0 0 0 0 0 0 0 0 0 0 0 0 0 0 0 0
0 0 0 0 0 0 0 0 0 0 0 0 0 0 0 0 0 0 0 0 0 0 0 0 0 0 0 0 0 0 0 0 0 0 0 0 0 0 0 0 0 0 0 0 0
0 0 0 0 0 0 0 0 0 0 0 0 0 0 0 0 0 0 0 0 0 0 0 0 0 0 0 0 0 0 0 0 0 0 0 0 0 0 0 0 0 0 0 0 0
0 0 0 0 0 0 0 0 0 0 0 0 0 0 0 0 0 0 0 0 0 0 0 0 0 0 0 0 0 0 0 0 0 0 0 0 0 0 0 0 0 0 0 0 0
0 0 0 0 0 0 0 0 0 0 0 0 0 0 0 0 0 0 0 0 0 0 0 0 0 0 0 0 0 0 0 0 0 0 0 0 0 0 0 0 0 0 0 0 0
0 0 0 0 0 0 0 0 0 0 0 0 0 0 0 0 0 0 0 0 0 0 0 0 0 0 0 0 0 0 0 0 0 0 0 0 0 0 0 0 0 0 0 0 0
0 0 0 0 0 0 0 0 0 0 0 0 0 0 0 0 0 0 0 0 0 0 0 0 0 0 0 0 0 0 0 0 0 0 0 0 0 0 0 0 0 0 0 0 0
0 0 0 0 0 0 0 0 0 0 0 0 0 0 0 0 0 0 0 0 0 0 0 0 0 0 0 0 0 0 0 0 0 0 0 0 0 0 0 0 0 0 0 0 0
0 0 0 0 0 0 0 0 0 0 0 0 0 0 0 0 0 0 0 0 0 0 0 0 0 0 0 0 0 0 0 0 0 0 0 0 0 0 0 0 0 0 0 0 0
0 0 0 0 0 0 0 0 0 0 0 0 0 0 0 0 0 0 0 0 0 0 0 0 0 0 0 0 0 0 0 0 0 0 0 0 0 0 0 0 0 0 0 0 0
0 0 0 0 0 0 0 0 0 0 0 0 0 0 0 0 0 0 0 0 0 0 0 0 0 0 0 0 0 0 0 0 0 0 0 0 0 0 0 0 0 0 0 0 0
0 0 0 0 0 0 0 0 0 0 0 0 0 0 0 0 0 0 0 0 0 0 0 0 0 0 0 0 0 0 0 0 0 0 0 0 0 0 0 0 0 0 0 0 0
Wind_Speed_500mb
13 16 18 21 24 26 29 31 33 34 32 29 25 7 5 11 10 6 10 14 18 18 19 15 15 7 4 7 7 4 8 5 13 13 10 18 9 14 11 16 26 25 17 17 50
14 16 17 19 21 23 26 28 30 31 32 27 23 14 3 1 2 4 6 11 14 17 18 20 24 7 6 6 5 8 6 12 10 9 8 13 12 25 14 15 18 22 27 25 53
18 19 20 21 21 22 26 27 28 29 29 29 22 17 7 8 9 6 3 6 10 13 18 19 22 10 6 6 8 3 5 5 6 11 10 9 8 19 18 10 34 46 46 47 53
23 23 24 25 25 25 25 28 29 31 31 27 25 16 10 6 6 11 8 2 6 11 15 18 19 9 7 5 6 4 2 5 5 10 7 5 6 11 37 19 19 36 43 54 56
28 28 29 29 30 29 27 29 31 32 32 31 24 19 11 12 14 15 15 8 3 7 10 16 19 8 3 3 5 4 2 5 9 13 18 14 14 18 30 47 37 26 47 55 54
30 32 33 35 35 34 32 31 32 35 34 34 27 21 14 12 14 18 18 17 11 7 8 11 10 10 5 1 1 1 8 12 13 18 17 9 9 5 12 31 39 38 53 55 52
32 34 35 37 38 38 36 33 34 34 35 34 30 22 21 25 17 20 20 18 15 8 6 8 8 6 3 2 5 4 10 12 9 9 8 9 12 20 38 25 32 45 54 56 56
34 35 37 38 40 41 39 36 35 35 36 33 27 17 15 17 18 21 20 18 15 10 8 6 7 5 3 2 8 7 8 9 3 13 4 9 19 16 26 38 48 55 59 63 65
36 37 38 40 41 42 41 38 36 35 33 26 18 14 14 14 19 24 22 18 16 12 8 5 2 5 4 7 9 12 7 6 16 19 6 11 19 13 16 43 54 66 71 73 70
41 40 39 39 40 43 41 38 34 28 22 17 18 8 20 12 15 22 25 19 14 10 5 5 4 6 6 7 8 10 7 10 14 6 8 11 35 32 36 45 67 73 78 82 82
46 44 40 39 37 37 40 33 13 9 12 15 7 13 12 18 17 19 23 19 15 9 9 2 5 13 18 15 5 6 8 15 11 9 8 17 26 43 34 46 53 62 73 85 93
50 48 44 40 36 32 28 13 10 12 22 31 46 52 47 26 15 27 27 15 14 14 10 6 17 14 7 8 9 7 7 16 15 2 12 21 31 29 36 33 56 59 69 88 85
51 47 42 37 35 30 18 11 11 15 8 19 27 23 18 31 17 17 28 17 9 11 13 14 6 12 10 8 8 9 11 10 14 10 10 15 15 14 15 25 49 59 66 70 85
50 47 40 31 29 18 11 7 10 14 6 14 7 7 10 12 8 18 31 14 6 19 16 13 5 13 8 11 17 9 10 6 7 9 8 9 21 8 16 22 13 38 53 69 72
46 44 37 28 15 12 8 6 9 5 9 9 6 10 13 9 3 9 22 15 10 12 13 15 15 10 10 15 16 12 5 4 2 4 7 8 9 12 7 17 40 19 52 58 69
40 39 32 26 27 24 16 6 1 9 15 7 8 11 9 10 6 10 9 7 5 7 4 12 2 11 13 5 6 8 4 8 7 4 4 13 16 9 12 18 16 14 26 33 48
36 33 29 28 18 17 16 9 4 10 6 10 11 9 5 12 10 14 13 12 15 9 14 3 10 4 6 7 5 6 11 8 9 4 17 8 6 26 14 26 21 20 32 37 40
37 31 31 30 26 16 22 6 18 14 15 7 6 4 12 14 8 9 9 10 15 4 7 10 19 17 11 14 14 12 16 11 15 8 28 2 18 15 25 34 38 36 34 34 40
35 36 38 36 29 25 19 12 17 17 15 15 6 7 9 7 6 10 16 11 15 23 19 13 16 5 4 3 5 10 10 4 6 5 6 11 16 14 19 24 20 39 35 46 47
39 33 47 34 34 29 5 39 16 20 16 11 26 22 19 15 15 16 17 10 11 30 5 9 10 2 2 4 6 8 8 8 4 6 13 23 29 27 28 21 22 16 32 40 41
42 16 21 34 39 30 21 18 12 28 24 14 16 12 17 18 16 14 15 8 14 11 10 8 6 2 7 19 23 6 7 1 3 10 12 11 25 10 16 18 22 20 34 42 42
55 9 37 63 27 19 31 13 19 12 45 17 10 21 24 21 19 20 24 27 44 26 22 15 10 15 30 3 7 6 15 22 13 14 6 5 46 7 12 16 15 22 36 42 40
35 42 49 83 17 29 8 10 28 17 24 26 23 17 12 18 15 20 27 13 40 21 23 19 8 9 16 5 4 14 15 12 4 2 24 12 49 6 14 14 26 26 30 38 44
28 8 17 66 43 30 28 19 21 27 43 18 9 23 8 30 38 19 11 8 36 25 6 40 15 22 38 26 12 12 23 32 43 30 29 61 65 90 39 46 54 50 61 65 61
32 15 27 13 34 36 23 12 41 20 23 37 22 47 35 19 36 40 34 3 1 3 3 18 26 27 47 58 11 15 32 34 41 61 36 72 56 89 52 54 59 58 61 52 58
41 15 29 18 34 45 46 46 60 39 16 16 40 17 42 52 52 50 37 11 21 6 15 9 26 24 46 48 19 20 66 34 48 66 45 62 74 77 57 87 73 81 64 58 59
76 54 60 29 26 22 41 57 64 53 43 63 39 36 43 53 63 77 59 21 25 25 23 16 12 8 47 25 14 16 64 62 63 67 53 55 90 74 60 58 54 64 57 64 64
Wind_Direction_500mb
7 5 8 10 9 9 10 7 8 10 15 20 13 359 39 54 64 49 63 64 52 48 39 28 7 15 107 72 59 98 63 175 197 158 235 172 143 172 187 159 185 201 214 219 185
345 349 351 354 357 356 358 359 359 2 2 6 8 355 294 264 44 58 75 60 50 39 22 10 7 39 99 71 57 79 107 218 184 202 222 183 185 174 170 185 216 219 220 198 183
326 329 331 335 340 344 343 344 346 349 353 356 358 352 324 273 268 211 167 62 47 26 13 9 10 19 73 57 35 96 169 215 231 228 226 194 188 183 162 219 217 216 200 184 184
319 320 321 321 324 326 329 329 333 334 338 342 344 347 318 284 251 199 192 137 34 18 11 9 11 15 55 41 40 18 10 236 232 215 217 232 186 227 211 225 233 234 215 195 193
313 316 317 318 318 318 319 320 320 320 324 327 328 326 296 261 250 227 214 221 292 354 355 15 25 26 46 324 8 103 330 276 266 246 241 248 237 240 250 243 248 238 204 202 200
301 307 310 313 315 315 317 317 315 312 314 316 311 306 270 238 252 228 227 232 249 296 345 13 28 11 104 351 54 275 272 259 247 243 242 213 259 273 264 237 234 222 207 206 206
292 298 303 306 308 311 314 315 313 309 308 309 305 293 267 267 250 233 229 231 232 260 303 354 13 14 357 67 336 321 327 319 214 220 253 204 277 238 259 239 219 210 208 209 210
283 290 296 300 304 307 310 313 311 307 304 300 299 280 264 257 240 228 229 225 225 253 270 322 355 80 70 327 6 30 56 3 218 157 257 150 268 260 263 228 214 212 212 213 215
277 283 288 295 301 304 308 310 309 303 297 294 276 246 260 263 231 225 224 227 226 246 246 274 341 99 89 75 7 9 271 273 312 195 138 173 268 254 250 220 226 224 220 220 220
275 279 285 291 298 303 309 312 309 296 285 272 242 237 243 228 218 221 223 229 236 228 213 192 103 72 48 91 248 244 265 252 241 208 201 217 262 266 251 228 233 234 230 227 225
275 277 281 287 296 304 311 333 317 294 261 239 231 246 276 236 222 219 219 223 227 208 187 69 101 207 220 197 182 182 202 236 244 242 236 239 248 271 264 233 238 233 231 233 234
276 280 285 290 295 303 314 342 323 303 305 271 257 252 250 227 250 231 215 204 186 204 127 46 237 212 133 141 171 187 237 261 284 298 191 264 255 264 263 252 241 238 231 236 233
271 276 281 287 294 299 303 305 307 318 268 281 256 258 240 226 226 228 200 195 178 181 192 176 212 118 146 163 183 221 198 238 238 328 248 305 262 233 272 255 254 251 252 250 240
267 270 274 280 288 285 277 284 313 335 39 268 226 232 205 174 241 198 192 184 191 206 160 235 206 176 173 215 158 246 208 238 273 20 250 21 293 244 245 287 241 249 245 247 241
267 264 265 264 245 257 254 293 321 347 303 258 195 178 174 189 140 191 189 197 190 186 137 240 171 174 190 215 167 228 133 157 104 214 5 232 264 253 26 266 267 263 259 252 248
283 272 258 250 248 247 248 252 196 47 245 279 170 179 145 199 197 150 174 180 126 135 285 252 289 179 207 87 156 127 90 68 62 79 278 228 194 214 184 212 251 256 258 261 256
287 283 252 235 231 229 217 167 30 192 288 230 210 185 188 189 206 175 169 180 178 145 222 272 211 176 160 113 42 95 68 317 323 348 246 143 209 255 235 235 230 258 277 280 264
296 275 258 242 220 189 173 76 219 213 214 56 98 71 194 158 245 184 155 217 235 113 119 190 275 179 176 196 181 174 172 170 236 236 286 246 244 267 231 259 262 257 268 273 256
275 268 259 237 216 193 182 215 209 178 200 167 108 174 233 233 209 153 210 215 214 170 187 179 265 99 50 91 114 180 192 167 82 124 333 234 270 281 265 268 265 263 261 255 250
256 264 256 243 212 192 171 233 213 198 152 159 202 183 207 199 175 183 180 193 220 195 160 234 288 65 102 107 35 177 169 82 10 266 264 264 276 255 244 251 245 244 239 258 249
231 234 213 205 190 197 223 227 207 214 207 179 216 246 216 193 195 206 218 230 208 164 158 145 150 249 129 205 174 141 218 92 163 165 209 282 272 206 214 214 230 231 237 252 243
208 215 185 174 177 207 233 198 202 211 217 253 216 221 218 187 211 219 212 215 186 152 161 192 160 233 238 360 343 280 204 176 200 228 231 129 269 231 181 190 223 236 252 249 245
207 206 184 180 202 214 223 254 231 199 196 214 227 193 197 211 238 196 234 194 175 155 168 177 213 256 281 55 6 220 200 223 304 175 213 188 258 109 200 227 248 232 240 251 261
203 185 182 202 220 211 215 238 238 235 238 237 241 208 171 238 230 260 226 196 193 194 255 169 180 196 235 233 129 184 219 218 221 244 237 233 258 269 263 274 277 271 270 266 253
212 191 191 194 220 221 205 235 239 234 218 212 243 234 232 246 246 238 253 253 349 229 136 175 236 226 244 256 179 208 241 213 213 235 233 254 246 256 262 263 269 280 278 257 248
229 181 193 228 205 208 217 225 241 242 169 221 234 240 230 239 236 254 243 195 220 355 195 195 241 253 258 258 195 244 255 235 225 243 248 257 264 261 273 276 278 276 274 252 247
240 243 213 207 218 200 212 224 232 236 241 241 237 239 238 239 242 252 265 258 238 225 194 172 187 191 251 255 126 263 246 239 251 250 235 248 254 277 273 266 266 270 255 252 253
Wind_Speed_850mb
13 16 18 21 24 26 29 31 33 34 32 29 25 7 5 11 10 6 10 14 18 18 19 15 15 7 4 7 7 4 8 5 13 13 10 18 9 14 11 16 26 25 17 17 50
14 16 17 19 21 23 26 28 30 31 32 27 23 14 3 1 2 4 6 11 14 17 18 20 24 7 6 6 5 8 6 12 10 9 8 13 12 25 14 15 18 22 27 25 53
18 19 20 21 21 22 26 27 28 29 29 29 22 17 7 8 9 6 3 6 10 13 18 19 22 10 6 6 8 3 5 5 6 11 10 9 8 19 18 10 34 46 46 47 53
23 23 24 25 25 25 25 28 29 31 31 27 25 16 10 6 6 11 8 2 6 11 15 18 19 9 7 5 6 4 2 5 5 10 7 5 6 11 37 19 19 36 43 54 56
28 28 29 29 30 29 27 29 31 32 32 31 24 19 11 12 14 15 15 8 3 7 10 16 19 8 3 3 5 4 2 5 9 13 18 14 14 18 30 47 37 26 47 55 54
30 32 33 35 35 34 32 31 32 35 34 34 27 21 14 12 14 18 18 17 11 7 8 11 10 10 5 1 1 1 8 12 13 18 17 9 9 5 12 31 39 38 53 55 52
32 34 35 37 38 38 36 33 34 34 35 34 30 22 21 25 17 20 20 18 15 8 6 8 8 6 3 2 5 4 10 12 9 9 8 9 12 20 38 25 32 45 54 56 56
34 35 37 38 40 41 39 36 35 35 36 33 27 17 15 17 18 21 20 18 15 10 8 6 7 5 3 2 8 7 8 9 3 13 4 9 19 16 26 38 48 55 59 63 65
36 37 38 40 41 42 41 38 36 35 33 26 18 14 14 14 19 24 22 18 16 12 8 5 2 5 4 7 9 12 7 6 16 19 6 11 19 13 16 43 54 66 71 73 70
41 40 39 39 40 43 41 38 34 28 22 17 18 8 20 12 15 22 25 19 14 10 5 5 4 6 6 7 8 10 7 10 14 6 8 11 35 32 36 45 67 73 78 82 82
46 44 40 39 37 37 40 33 13 9 12 15 7 13 12 18 17 19 23 19 15 9 9 2 5 13 18 15 5 6 8 15 11 9 8 17 26 43 34 46 53 62 73 85 93
50 48 44 40 36 32 28 13 10 12 22 31 46 52 47 26 15 27 27 15 14 14 10 6 17 14 7 8 9 7 7 16 15 2 12 21 31 29 36 33 56 59 69 88 85
51 47 42 37 35 30 18 11 11 15 8 19 27 23 18 31 17 17 28 17 9 11 13 14 6 12 10 8 8 9 11 10 14 10 10 15 15 14 15 25 49 59 66 70 85
50 47 40 31 29 18 11 7 10 14 6 14 7 7 10 12 8 18 31 14 6 19 16 13 5 13 8 11 17 9 10 6 7 9 8 9 21 8 16 22 13 38 53 69 72
46 44 37 28 15 12 8 6 9 5 9 9 6 10 13 9 3 9 22 15 10 12 13 15 15 10 10 15 16 12 5 4 2 4 7 8 9 12 7 17 40 19 52 58 69
40 39 32 26 27 24 16 6 1 9 15 7 8 11 9 10 6 10 9 7 5 7 4 12 2 11 13 5 6 8 4 8 7 4 4 13 16 9 12 18 16 14 26 33 48
36 33 29 28 18 17 16 9 4 10 6 10 11 9 5 12 10 14 13 12 15 9 14 3 10 4 6 7 5 6 11 8 9 4 17 8 6 26 14 26 21 20 32 37 40
37 31 31 30 26 16 22 6 18 14 15 7 6 4 12 14 8 9 9 10 15 4 7 10 19 17 11 14 14 12 16 11 15 8 28 2 18 15 25 34 38 36 34 34 40
35 36 38 36 29 25 19 12 17 17 15 15 6 7 9 7 6 10 16 11 15 23 19 13 16 5 4 3 5 10 10 4 6 5 6 11 16 14 19 24 20 39 35 46 47
39 33 47 34 34 29 5 39 16 20 16 11 26 22 19 15 15 16 17 10 11 30 5 9 10 2 2 4 6 8 8 8 4 6 13 23 29 27 28 21 22 16 32 40 41
42 16 21 34 39 30 21 18 12 28 24 14 16 12 17 18 16 14 15 8 14 11 10 8 6 2 7 19 23 6 7 1 3 10 12 11 25 10 16 18 22 20 34 42 42
55 9 37 63 27 19 31 13 19 12 45 17 10 21 24 21 19 20 24 27 44 26 22 15 10 15 30 3 7 6 15 22 13 14 6 5 46 7 12 16 15 22 36 42 40
35 42 49 83 17 29 8 10 28 17 24 26 23 17 12 18 15 20 27 13 40 21 23 19 8 9 16 5 4 14 15 12 4 2 24 12 49 6 14 14 26 26 30 38 44
28 8 17 66 43 30 28 19 21 27 43 18 9 23 8 30 38 19 11 8 36 25 6 40 15 22 38 26 12 12 23 32 43 30 29 61 65 90 39 46 54 50 61 65 61
32 15 27 13 34 36 23 12 41 20 23 37 22 47 35 19 36 40 34 3 1 3 3 18 26 27 47 58 11 15 32 34 41 61 36 72 56 89 52 54 59 58 61 52 58
41 15 29 18 34 45 46 46 60 39 16 16 40 17 42 52 52 50 37 11 21 6 15 9 26 24 46 48 19 20 66 34 48 66 45 62 74 77 57 87 73 81 64 58 59
76 54 60 29 26 22 41 57 64 53 43 63 39 36 43 53 63 77 59 21 25 25 23 16 12 8 47 25 14 16 64 62 63 67 53 55 90 74 60 58 54 64 57 64 64
Wind_Direction_850mb
7 5 8 10 9 9 10 7 8 10 15 20 13 359 39 54 64 49 63 64 52 48 39 28 7 15 107 72 59 98 63 175 197 158 235 172 143 172 187 159 185 201 214 219 185
345 349 351 354 357 356 358 359 359 2 2 6 8 355 294 264 44 58 75 60 50 39 22 10 7 39 99 71 57 79 107 218 184 202 222 183 185 174 170 185 216 219 220 198 183
326 329 331 335 340 344 343 344 346 349 353 356 358 352 324 273 268 211 167 62 47 26 13 9 10 19 73 57 35 96 169 215 231 228 226 194 188 183 162 219 217 216 200 184 184
319 320 321 321 324 326 329 329 333 334 338 342 344 347 318 284 251 199 192 137 34 18 11 9 11 15 55 41 40 18 10 236 232 215 217 232 186 227 211 225 233 234 215 195 193
313 316 317 318 318 318 319 320 320 320 324 327 328 326 296 261 250 227 214 221 292 354 355 15 25 26 46 324 8 103 330 276 266 246 241 248 237 240 250 243 248 238 204 202 200
301 307 310 313 315 315 317 317 315 312 314 316 311 306 270 238 252 228 227 232 249 296 345 13 28 11 104 351 54 275 272 259 247 243 242 213 259 273 264 237 234 222 207 206 206
292 298 303 306 308 311 314 315 313 309 308 309 305 293 267 267 250 233 229 231 232 260 303 354 13 14 357 67 336 321 327 319 214 220 253 204 277 238 259 239 219 210 208 209 210
283 290 296 300 304 307 310 313 311 307 304 300 299 280 264 257 240 228 229 225 225 253 270 322 355 80 70 327 6 30 56 3 218 157 257 150 268 260 263 228 214 212 212 213 215
277 283 288 295 301 304 308 310 309 303 297 294 276 246 260 263 231 225 224 227 226 246 246 274 341 99 89 75 7 9 271 273 312 195 138 173 268 254 250 220 226 224 220 220 220
275 279 285 291 298 303 309 312 309 296 285 272 242 237 243 228 218 221 223 229 236 228 213 192 103 72 48 91 248 244 265 252 241 208 201 217 262 266 251 228 233 234 230 227 225
275 277 281 287 296 304 311 333 317 294 261 239 231 246 276 236 222 219 219 223 227 208 187 69 101 207 220 197 182 182 202 236 244 242 236 239 248 271 264 233 238 233 231 233 234
276 280 285 290 295 303 314 342 323 303 305 271 257 252 250 227 250 231 215 204 186 204 127 46 237 212 133 141 171 187 237 261 284 298 191 264 255 264 263 252 241 238 231 236 233
271 276 281 287 294 299 303 305 307 318 268 281 256 258 240 226 226 228 200 195 178 181 192 176 212 118 146 163 183 221 198 238 238 328 248 305 262 233 272 255 254 251 252 250 240
267 270 274 280 288 285 277 284 313 335 39 268 226 232 205 174 241 198 192 184 191 206 160 235 206 176 173 215 158 246 208 238 273 20 250 21 293 244 245 287 241 249 245 247 241
267 264 265 264 245 257 254 293 321 347 303 258 195 178 174 189 140 191 189 197 190 186 137 240 171 174 190 215 167 228 133 157 104 214 5 232 264 253 26 266 267 263 259 252 248
283 272 258 250 248 247 248 252 196 47 245 279 170 179 145 199 197 150 174 180 126 135 285 252 289 179 207 87 156 127 90 68 62 79 278 228 194 214 184 212 251 256 258 261 256
287 283 252 235 231 229 217 167 30 192 288 230 210 185 188 189 206 175 169 180 178 145 222 272 211 176 160 113 42 95 68 317 323 348 246 143 209 255 235 235 230 258 277 280 264
296 275 258 242 220 189 173 76 219 213 214 56 98 71 194 158 245 184 155 217 235 113 119 190 275 179 176 196 181 174 172 170 236 236 286 246 244 267 231 259 262 257 268 273 256
275 268 259 237 216 193 182 215 209 178 200 167 108 174 233 233 209 153 210 215 214 170 187 179 265 99 50 91 114 180 192 167 82 124 333 234 270 281 265 268 265 263 261 255 250
256 264 256 243 212 192 171 233 213 198 152 159 202 183 207 199 175 183 180 193 220 195 160 234 288 65 102 107 35 177 169 82 10 266 264 264 276 255 244 251 245 244 239 258 249
231 234 213 205 190 197 223 227 207 214 207 179 216 246 216 193 195 206 218 230 208 164 158 145 150 249 129 205 174 141 218 92 163 165 209 282 272 206 214 214 230 231 237 252 243
208 215 185 174 177 207 233 198 202 211 217 253 216 221 218 187 211 219 212 215 186 152 161 192 160 233 238 360 343 280 204 176 200 228 231 129 269 231 181 190 223 236 252 249 245
207 206 184 180 202 214 223 254 231 199 196 214 227 193 197 211 238 196 234 194 175 155 168 177 213 256 281 55 6 220 200 223 304 175 213 188 258 109 200 227 248 232 240 251 261
203 185 182 202 220 211 215 238 238 235 238 237 241 208 171 238 230 260 226 196 193 194 255 169 180 196 235 233 129 184 219 218 221 244 237 233 258 269 263 274 277 271 270 266 253
212 191 191 194 220 221 205 235 239 234 218 212 243 234 232 246 246 238 253 253 349 229 136 175 236 226 244 256 179 208 241 213 213 235 233 254 246 256 262 263 269 280 278 257 248
229 181 193 228 205 208 217 225 241 242 169 221 234 240 230 239 236 254 243 195 220 355 195 195 241 253 258 258 195 244 255 235 225 243 248 257 264 261 273 276 278 276 274 252 247
240 243 213 207 218 200 212 224 232 236 241 241 237 239 238 239 242 252 265 258 238 225 194 172 187 191 251 255 126 263 246 239 251 250 235 248 254 277 273 266 266 270 255 252 253